Time,TemperatureF,DewpointF,PressureIn,WindDirection,WindDirectionDegrees,WindSpeedMPH,WindSpeedGustMPH,Humidity,HourlyPrecipIn,Conditions,Clouds,dailyrainin,SoftwareType,DateUTC
2013-11-03 00:00:00,32.5,29.9,29.71,NNW,338,0.0,0.0,90,0.00,,,-99.99,VWS V12.07,2013-11-03 05:00:00,
2013-11-03 00:05:00,32.5,29.9,29.71,NNW,338,0.0,0.0,90,0.00,,,-99.99,VWS V12.07,2013-11-03 05:05:00,
2013-11-03 00:10:00,32.5,29.9,29.71,NNW,338,0.0,0.0,90,0.00,,,-99.99,VWS V12.07,2013-11-03 05:10:00,
2013-11-03 00:15:00,32.5,29.9,29.71,NNW,338,0.0,0.0,90,0.00,,,-99.99,VWS V12.07,2013-11-03 05:15:00,
2013-11-03 00:20:00,32.5,29.9,29.71,NNW,338,0.0,0.0,90,0.00,,,-99.99,VWS V12.07,2013-11-03 05:20:00,
2013-11-03 00:25:00,32.7,30.1,29.71,NNW,338,0.0,0.0,90,0.00,,,-99.99,VWS V12.07,2013-11-03 05:25:00,
2013-11-03 00:30:00,32.7,30.1,29.71,NNW,338,0.0,0.0,90,0.00,,,-99.99,VWS V12.07,2013-11-03 05:30:00,
2013-11-03 00:35:00,32.7,30.1,29.71,NNW,338,0.0,0.0,90,0.00,,,-99.99,VWS V12.07,2013-11-03 05:35:00,
2013-11-03 00:40:00,32.7,30.1,29.71,NNW,338,0.0,0.0,90,0.00,,,-99.99,VWS V12.07,2013-11-03 05:40:00,
2013-11-03 00:45:00,32.7,30.1,29.72,NNW,338,0.0,0.0,90,0.00,,,-99.99,VWS V12.07,2013-11-03 05:45:00,
2013-11-03 00:50:00,32.7,30.1,29.72,NNW,338,0.0,0.0,90,0.00,,,-99.99,VWS V12.07,2013-11-03 05:50:00,
2013-11-03 00:55:00,32.7,30.1,29.71,NNW,338,0.0,0.0,90,0.00,,,-99.99,VWS V12.07,2013-11-03 05:55:00,
2013-11-03 01:00:00,32.9,30.3,29.72,NNW,338,0.0,0.0,90,0.00,,,-99.99,VWS V12.07,2013-11-03 06:00:00,
2013-11-03 01:05:00,32.9,0.0,29.72,North,0,0.0,0.0,0,0.00,,,-99.99,VWS V12.07,2013-11-03 06:05:00,
2013-11-03 01:10:00,32.9,30.3,29.72,NNW,338,0.0,0.0,90,0.00,,,-99.99,VWS V12.07,2013-11-03 06:10:00,
2013-11-03 01:15:00,32.9,30.3,29.72,NNW,338,0.0,0.0,90,0.00,,,-99.99,VWS V12.07,2013-11-03 06:15:00,
2013-11-03 01:20:00,32.9,30.3,29.72,NNW,338,0.0,0.0,90,0.00,,,-99.99,VWS V12.07,2013-11-03 06:20:00,
2013-11-03 01:25:00,32.9,30.3,29.72,NNW,338,0.0,0.0,90,0.00,,,-99.99,VWS V12.07,2013-11-03 06:25:00,
2013-11-03 01:30:00,32.9,30.3,29.72,NNW,338,0.0,0.0,90,0.00,,,-99.99,VWS V12.07,2013-11-03 06:30:00,
2013-11-03 01:35:00,32.9,30.3,29.72,NNW,338,0.0,0.0,90,0.00,,,-99.99,VWS V12.07,2013-11-03 06:35:00,
2013-11-03 01:40:00,32.9,30.3,29.73,NNW,338,0.0,0.0,90,0.00,,,-99.99,VWS V12.07,2013-11-03 06:40:00,
2013-11-03 01:45:00,32.9,30.3,29.73,NNW,338,0.0,0.0,90,0.00,,,-99.99,VWS V12.07,2013-11-03 06:45:00,
2013-11-03 01:50:00,32.9,30.3,29.73,NNW,338,0.0,0.0,90,0.00,,,-99.99,VWS V12.07,2013-11-03 06:50:00,
2013-11-03 01:55:00,32.7,30.1,29.73,NNW,338,0.0,0.0,90,0.00,,,-99.99,VWS V12.07,2013-11-03 06:55:00,
2013-11-03 01:00:00,32.7,30.1,29.73,NNW,338,0.0,0.0,90,0.00,,,-99.99,VWS V12.07,2013-11-03 07:00:00,
2013-11-03 01:05:00,32.7,30.1,29.73,NNW,338,0.0,0.0,90,0.00,,,-99.99,VWS V12.07,2013-11-03 07:05:00,
2013-11-03 01:10:00,32.7,30.1,29.74,NNW,338,0.0,0.0,90,0.00,,,-99.99,VWS V12.07,2013-11-03 07:10:00,
2013-11-03 01:15:00,32.5,29.9,29.74,NNW,338,0.0,0.0,90,0.00,,,-99.99,VWS V12.07,2013-11-03 07:15:00,
2013-11-03 01:20:00,32.3,29.7,29.74,NNW,338,0.0,0.0,90,0.00,,,-99.99,VWS V12.07,2013-11-03 07:20:00,
2013-11-03 01:25:00,32.1,29.5,29.74,NNW,338,0.0,0.0,90,0.00,,,-99.99,VWS V12.07,2013-11-03 07:25:00,
2013-11-03 01:30:00,32.1,29.5,29.75,NNW,338,0.0,0.0,90,0.00,,,-99.99,VWS V12.07,2013-11-03 07:30:00,
2013-11-03 01:35:00,31.8,29.2,29.74,NNW,338,0.0,0.0,90,0.00,,,-99.99,VWS V12.07,2013-11-03 07:35:00,
2013-11-03 01:40:00,31.6,29.0,29.75,NNW,338,0.0,0.0,90,0.00,,,-99.99,VWS V12.07,2013-11-03 07:40:00,
2013-11-03 01:45:00,31.2,28.6,29.75,NNW,338,0.0,0.0,90,0.00,,,-99.99,VWS V12.07,2013-11-03 07:45:00,
2013-11-03 01:50:00,31.2,28.6,29.75,NNW,338,0.0,0.0,90,0.00,,,-99.99,VWS V12.07,2013-11-03 07:50:00,
2013-11-03 01:55:00,31.1,28.5,29.75,NNW,338,0.0,0.0,90,0.00,,,-99.99,VWS V12.07,2013-11-03 07:55:00,
2013-11-03 02:00:00,30.9,28.3,29.75,NNW,338,0.0,0.0,90,0.00,,,-99.99,VWS V12.07,2013-11-03 08:00:00,
2013-11-03 02:05:00,30.7,28.1,29.75,NNW,338,0.0,0.0,90,0.00,,,-99.99,VWS V12.07,2013-11-03 08:05:00,
2013-11-03 02:10:00,30.7,28.1,29.75,NNW,338,0.0,0.0,90,0.00,,,-99.99,VWS V12.07,2013-11-03 08:10:00,
2013-11-03 02:15:00,30.3,27.7,29.75,NNW,338,0.0,0.0,90,0.00,,,-99.99,VWS V12.07,2013-11-03 08:15:00,
2013-11-03 02:20:00,30.3,27.7,29.75,NNW,338,0.0,0.0,90,0.00,,,-99.99,VWS V12.07,2013-11-03 08:20:00,
2013-11-03 02:25:00,30.0,27.4,29.75,NNW,338,0.0,0.0,90,0.00,,,-99.99,VWS V12.07,2013-11-03 08:25:00,
2013-11-03 02:30:00,29.8,27.2,29.75,NNW,338,0.0,0.0,90,0.00,,,-99.99,VWS V12.07,2013-11-03 08:30:00,
2013-11-03 02:35:00,29.4,26.6,29.75,NNW,338,0.0,0.0,89,0.00,,,-99.99,VWS V12.07,2013-11-03 08:35:00,
2013-11-03 02:40:00,29.3,26.5,29.75,NNW,338,0.0,0.0,89,0.00,,,-99.99,VWS V12.07,2013-11-03 08:40:00,
2013-11-03 02:45:00,29.1,26.3,29.75,NNW,338,0.0,0.0,89,0.00,,,-99.99,VWS V12.07,2013-11-03 08:45:00,
2013-11-03 02:50:00,29.1,26.3,29.75,NNW,338,0.0,0.0,89,0.00,,,-99.99,VWS V12.07,2013-11-03 08:50:00,
2013-11-03 02:55:00,28.9,26.1,29.75,NNW,338,0.0,0.0,89,0.00,,,-99.99,VWS V12.07,2013-11-03 08:55:00,
2013-11-03 03:00:00,28.9,26.1,29.75,NNW,338,0.0,0.0,89,0.00,,,-99.99,VWS V12.07,2013-11-03 09:00:00,
2013-11-03 03:05:00,28.9,26.1,29.75,NNW,338,0.0,0.0,89,0.00,,,-99.99,VWS V12.07,2013-11-03 09:05:00,
2013-11-03 03:10:00,28.9,26.1,29.75,NNW,338,0.0,0.0,89,0.00,,,-99.99,VWS V12.07,2013-11-03 09:10:00,
2013-11-03 03:15:00,28.7,25.9,29.76,NNW,338,0.0,0.0,89,0.00,,,-99.99,VWS V12.07,2013-11-03 09:15:00,
2013-11-03 03:20:00,28.7,25.9,29.76,NNW,338,0.0,0.0,89,0.00,,,-99.99,VWS V12.07,2013-11-03 09:20:00,
2013-11-03 03:25:00,28.7,25.9,29.77,NNW,338,0.0,0.0,89,0.00,,,-99.99,VWS V12.07,2013-11-03 09:25:00,
2013-11-03 03:30:00,28.7,25.9,29.77,NNW,338,0.0,0.0,89,0.00,,,-99.99,VWS V12.07,2013-11-03 09:30:00,
2013-11-03 03:35:00,28.7,25.9,29.77,NNW,338,0.0,0.0,89,0.00,,,-99.99,VWS V12.07,2013-11-03 09:35:00,
2013-11-03 03:40:00,28.7,26.1,29.77,NNW,338,0.0,0.0,90,0.00,,,-99.99,VWS V12.07,2013-11-03 09:40:00,
2013-11-03 03:45:00,28.5,26.0,29.77,NNW,338,0.0,0.0,90,0.00,,,-99.99,VWS V12.07,2013-11-03 09:45:00,
2013-11-03 03:50:00,28.5,26.0,29.77,NNW,338,0.0,0.0,90,0.00,,,-99.99,VWS V12.07,2013-11-03 09:50:00,
2013-11-03 03:55:00,28.5,26.0,29.77,NNW,338,0.0,0.0,90,0.00,,,-99.99,VWS V12.07,2013-11-03 09:55:00,
2013-11-03 04:00:00,28.4,25.9,29.78,NNW,338,0.0,0.0,90,0.00,,,-99.99,VWS V12.07,2013-11-03 10:00:00,
2013-11-03 04:05:00,28.2,25.6,29.78,NNW,338,0.0,0.0,90,0.00,,,-99.99,VWS V12.07,2013-11-03 10:05:00,
2013-11-03 04:10:00,28.2,25.6,29.77,NNW,338,0.0,0.0,90,0.00,,,-99.99,VWS V12.07,2013-11-03 10:10:00,
2013-11-03 04:15:00,28.2,25.6,29.77,NNW,338,0.0,0.0,90,0.00,,,-99.99,VWS V12.07,2013-11-03 10:15:00,
2013-11-03 04:20:00,28.2,25.6,29.77,NNW,338,0.0,0.0,90,0.00,,,-99.99,VWS V12.07,2013-11-03 10:20:00,
2013-11-03 04:25:00,28.0,25.5,29.77,NNW,338,0.0,0.0,90,0.00,,,-99.99,VWS V12.07,2013-11-03 10:25:00,
2013-11-03 04:30:00,28.0,25.5,29.78,NNW,338,0.0,0.0,90,0.00,,,-99.99,VWS V12.07,2013-11-03 10:30:00,
2013-11-03 04:35:00,28.0,25.5,29.77,NNW,338,0.0,0.0,90,0.00,,,-99.99,VWS V12.07,2013-11-03 10:35:00,
2013-11-03 04:40:00,28.0,25.5,29.77,NNW,338,0.0,0.0,90,0.00,,,-99.99,VWS V12.07,2013-11-03 10:40:00,
2013-11-03 04:45:00,28.0,25.5,29.77,NNW,338,0.0,0.0,90,0.00,,,-99.99,VWS V12.07,2013-11-03 10:45:00,
2013-11-03 04:50:00,28.0,25.5,29.77,NNW,338,0.0,0.0,90,0.00,,,-99.99,VWS V12.07,2013-11-03 10:50:00,
2013-11-03 04:55:00,27.8,25.2,29.77,NNW,338,0.0,0.0,90,0.00,,,-99.99,VWS V12.07,2013-11-03 10:55:00,
2013-11-03 05:00:00,27.6,25.1,29.78,NNW,338,0.0,0.0,90,0.00,,,-99.99,VWS V12.07,2013-11-03 11:00:00,
2013-11-03 05:05:00,27.6,25.1,29.77,NNW,338,0.0,0.0,90,0.00,,,-99.99,VWS V12.07,2013-11-03 11:05:00,
2013-11-03 05:10:00,27.6,25.1,29.78,NNW,338,0.0,0.0,90,0.00,,,-99.99,VWS V12.07,2013-11-03 11:10:00,
2013-11-03 05:15:00,27.8,25.2,29.78,NNW,338,0.0,0.0,90,0.00,,,-99.99,VWS V12.07,2013-11-03 11:15:00,
2013-11-03 05:20:00,27.8,25.2,29.78,NNW,338,0.0,0.0,90,0.00,,,-99.99,VWS V12.07,2013-11-03 11:20:00,
2013-11-03 05:25:00,28.0,25.5,29.78,NNW,338,0.0,0.0,90,0.00,,,-99.99,VWS V12.07,2013-11-03 11:25:00,
2013-11-03 05:30:00,28.0,25.5,29.78,NNW,338,0.0,0.0,90,0.00,,,-99.99,VWS V12.07,2013-11-03 11:30:00,
2013-11-03 05:35:00,28.0,25.5,29.78,NNW,338,0.0,0.0,90,0.00,,,-99.99,VWS V12.07,2013-11-03 11:35:00,
2013-11-03 05:40:00,28.0,25.5,29.78,NNW,338,0.0,0.0,90,0.00,,,-99.99,VWS V12.07,2013-11-03 11:40:00,
2013-11-03 05:45:00,28.0,25.5,29.78,NNW,338,0.0,0.0,90,0.00,,,-99.99,VWS V12.07,2013-11-03 11:45:00,
2013-11-03 05:50:00,28.0,25.5,29.79,NNW,338,0.0,0.0,90,0.00,,,-99.99,VWS V12.07,2013-11-03 11:50:00,
2013-11-03 05:55:00,28.0,25.5,29.79,NNW,338,0.0,0.0,90,0.00,,,-99.99,VWS V12.07,2013-11-03 11:55:00,
2013-11-03 06:00:00,28.0,25.5,29.79,NNW,338,0.0,0.0,90,0.00,,,-99.99,VWS V12.07,2013-11-03 12:00:00,
2013-11-03 06:05:00,28.0,25.5,29.79,NNW,338,0.0,0.0,90,0.00,,,-99.99,VWS V12.07,2013-11-03 12:05:00,
2013-11-03 06:10:00,28.0,25.5,29.79,NNW,338,0.0,0.0,90,0.00,,,-99.99,VWS V12.07,2013-11-03 12:10:00,
2013-11-03 06:15:00,27.6,25.1,29.79,NNW,338,0.0,0.0,90,0.00,,,-99.99,VWS V12.07,2013-11-03 12:15:00,
2013-11-03 06:20:00,27.6,25.1,29.79,NNW,338,0.0,0.0,90,0.00,,,-99.99,VWS V12.07,2013-11-03 12:20:00,
2013-11-03 06:25:00,27.6,25.1,29.79,NNW,338,0.0,0.0,90,0.00,,,-99.99,VWS V12.07,2013-11-03 12:25:00,
2013-11-03 06:30:00,27.6,25.1,29.79,NNW,338,0.0,0.0,90,0.00,,,-99.99,VWS V12.07,2013-11-03 12:30:00,
2013-11-03 06:35:00,27.6,25.1,29.79,NNW,338,0.0,0.0,90,0.00,,,-99.99,VWS V12.07,2013-11-03 12:35:00,
2013-11-03 06:40:00,27.6,25.1,29.79,NNW,338,0.0,0.0,90,0.00,,,-99.99,VWS V12.07,2013-11-03 12:40:00,
2013-11-03 06:45:00,27.6,25.1,29.79,NNW,338,0.0,0.0,90,0.00,,,-99.99,VWS V12.07,2013-11-03 12:45:00,
2013-11-03 06:50:00,27.6,25.1,29.79,NNW,338,0.0,0.0,90,0.00,,,-99.99,VWS V12.07,2013-11-03 12:50:00,
2013-11-03 06:55:00,27.6,25.1,29.79,NNW,338,0.0,0.0,90,0.00,,,-99.99,VWS V12.07,2013-11-03 12:55:00,
2013-11-03 07:00:00,27.6,25.1,29.79,NNW,338,0.0,0.0,90,0.00,,,-99.99,VWS V12.07,2013-11-03 13:00:00,
2013-11-03 07:05:00,27.6,25.1,29.79,NNW,338,0.0,0.0,90,0.00,,,-99.99,VWS V12.07,2013-11-03 13:05:00,
2013-11-03 07:10:00,27.6,25.1,29.79,NNW,338,0.0,0.0,90,0.00,,,-99.99,VWS V12.07,2013-11-03 13:10:00,
2013-11-03 07:15:00,27.6,25.1,29.79,NNW,338,0.0,0.0,90,0.00,,,-99.99,VWS V12.07,2013-11-03 13:15:00,
2013-11-03 07:20:00,27.6,25.1,29.80,NNW,338,0.0,0.0,90,0.00,,,-99.99,VWS V12.07,2013-11-03 13:20:00,
2013-11-03 07:25:00,27.8,25.2,29.80,NNW,338,0.0,0.0,90,0.00,,,-99.99,VWS V12.07,2013-11-03 13:25:00,
2013-11-03 07:30:00,28.0,25.5,29.80,NNW,338,0.0,0.0,90,0.00,,,-99.99,VWS V12.07,2013-11-03 13:30:00,
2013-11-03 07:35:00,28.0,25.5,29.80,NNW,338,0.0,0.0,90,0.00,,,-99.99,VWS V12.07,2013-11-03 13:35:00,
2013-11-03 07:40:00,28.2,25.6,29.80,NNW,338,0.0,0.0,90,0.00,,,-99.99,VWS V12.07,2013-11-03 13:40:00,
2013-11-03 07:45:00,28.2,25.6,29.80,NNW,338,0.0,0.0,90,0.00,,,-99.99,VWS V12.07,2013-11-03 13:45:00,
2013-11-03 07:50:00,28.5,26.0,29.80,NNW,338,0.0,0.0,90,0.00,,,-99.99,VWS V12.07,2013-11-03 13:50:00,
2013-11-03 07:55:00,28.9,26.3,29.80,NNW,338,0.0,0.0,90,0.00,,,-99.99,VWS V12.07,2013-11-03 13:55:00,
2013-11-03 08:00:00,28.9,26.3,29.80,NNW,338,0.0,0.0,90,0.00,,,-99.99,VWS V12.07,2013-11-03 14:00:00,
2013-11-03 08:05:00,29.1,26.5,29.80,NNW,338,0.0,0.0,90,0.00,,,-99.99,VWS V12.07,2013-11-03 14:05:00,
2013-11-03 08:10:00,29.4,26.8,29.80,NNW,338,0.0,0.0,90,0.00,,,-99.99,VWS V12.07,2013-11-03 14:10:00,
2013-11-03 08:15:00,29.4,26.8,29.80,NNW,338,0.0,0.0,90,0.00,,,-99.99,VWS V12.07,2013-11-03 14:15:00,
2013-11-03 08:20:00,29.8,27.2,29.81,NNW,338,0.0,0.0,90,0.00,,,-99.99,VWS V12.07,2013-11-03 14:20:00,
2013-11-03 08:25:00,30.0,27.7,29.81,NNW,338,0.0,0.0,91,0.00,,,-99.99,VWS V12.07,2013-11-03 14:25:00,
2013-11-03 08:30:00,30.0,27.7,29.81,NNW,338,0.0,0.0,91,0.00,,,-99.99,VWS V12.07,2013-11-03 14:30:00,
2013-11-03 08:35:00,30.2,27.9,29.81,NNW,338,0.0,0.0,91,0.00,,,-99.99,VWS V12.07,2013-11-03 14:35:00,
2013-11-03 08:40:00,30.3,28.0,29.81,NNW,338,0.0,0.0,91,0.00,,,-99.99,VWS V12.07,2013-11-03 14:40:00,
2013-11-03 08:45:00,30.5,28.2,29.81,NNW,338,0.0,0.0,91,0.00,,,-99.99,VWS V12.07,2013-11-03 14:45:00,
2013-11-03 08:50:00,30.7,28.4,29.81,NNW,338,0.0,0.0,91,0.00,,,-99.99,VWS V12.07,2013-11-03 14:50:00,
2013-11-03 08:55:00,30.9,28.6,29.82,SSW,202,0.0,2.9,91,0.00,,,-99.99,VWS V12.07,2013-11-03 14:55:00,
2013-11-03 09:00:00,31.2,28.9,29.82,SSW,202,0.0,2.9,91,0.00,,,-99.99,VWS V12.07,2013-11-03 15:00:00,
2013-11-03 09:05:00,31.2,28.9,29.82,SSW,202,0.0,0.0,91,0.00,,,-99.99,VWS V12.07,2013-11-03 15:05:00,
2013-11-03 09:10:00,31.6,29.3,29.82,SSW,202,0.0,0.0,91,0.00,,,-99.99,VWS V12.07,2013-11-03 15:10:00,
2013-11-03 09:15:00,31.6,29.3,29.82,SSW,202,0.0,0.0,91,0.00,,,-99.99,VWS V12.07,2013-11-03 15:15:00,
2013-11-03 09:20:00,31.6,29.3,29.82,SSW,202,0.0,0.0,91,0.00,,,-99.99,VWS V12.07,2013-11-03 15:20:00,
2013-11-03 09:25:00,31.8,29.5,29.82,SSW,202,0.0,0.0,91,0.00,,,-99.99,VWS V12.07,2013-11-03 15:25:00,
2013-11-03 09:30:00,32.1,29.8,29.82,SSW,202,0.0,0.0,91,0.00,,,-99.99,VWS V12.07,2013-11-03 15:30:00,
2013-11-03 09:35:00,32.1,29.8,29.82,SSW,202,0.0,0.0,91,0.00,,,-99.99,VWS V12.07,2013-11-03 15:35:00,
2013-11-03 09:40:00,32.5,30.2,29.82,SSW,202,0.0,0.0,91,0.00,,,-99.99,VWS V12.07,2013-11-03 15:40:00,
2013-11-03 09:45:00,32.7,30.4,29.82,SSW,202,0.0,0.0,91,0.00,,,-99.99,VWS V12.07,2013-11-03 15:45:00,
2013-11-03 09:50:00,32.9,30.6,29.82,SSW,202,0.0,0.0,91,0.00,,,-99.99,VWS V12.07,2013-11-03 15:50:00,
2013-11-03 09:55:00,33.4,31.1,29.82,SSW,202,0.0,0.0,91,0.00,,,-99.99,VWS V12.07,2013-11-03 15:55:00,
2013-11-03 10:00:00,33.6,31.3,29.82,SSW,202,0.0,0.0,91,0.00,,,-99.99,VWS V12.07,2013-11-03 16:00:00,
2013-11-03 10:05:00,33.6,31.3,29.82,SSW,202,0.0,0.0,91,0.00,,,-99.99,VWS V12.07,2013-11-03 16:05:00,
2013-11-03 10:10:00,33.9,31.6,29.82,SSW,202,0.0,0.0,91,0.00,,,-99.99,VWS V12.07,2013-11-03 16:10:00,
2013-11-03 10:15:00,34.1,31.8,29.82,SSW,202,6.9,6.9,91,0.00,,,-99.99,VWS V12.07,2013-11-03 16:15:00,
2013-11-03 10:20:00,34.3,32.0,29.82,SSW,202,0.0,6.9,91,0.00,,,-99.99,VWS V12.07,2013-11-03 16:20:00,
2013-11-03 10:25:00,34.3,32.0,29.82,SSW,202,0.0,6.9,91,0.00,,,-99.99,VWS V12.07,2013-11-03 16:25:00,
2013-11-03 10:30:00,34.3,32.0,29.82,SSW,202,0.0,6.9,91,0.00,,,-99.99,VWS V12.07,2013-11-03 16:30:00,
2013-11-03 10:35:00,34.3,32.0,29.82,SSW,202,0.0,0.0,91,0.00,,,-99.99,VWS V12.07,2013-11-03 16:35:00,
2013-11-03 10:40:00,34.8,32.7,29.82,SSW,202,0.0,0.0,92,0.00,,,-99.99,VWS V12.07,2013-11-03 16:40:00,
2013-11-03 10:45:00,34.8,32.5,29.82,SSW,202,0.0,0.0,91,0.00,,,-99.99,VWS V12.07,2013-11-03 16:45:00,
2013-11-03 10:50:00,35.2,32.8,29.82,SSW,202,0.0,0.0,91,0.00,,,-99.99,VWS V12.07,2013-11-03 16:50:00,
2013-11-03 10:55:00,35.4,33.0,29.81,SSW,202,0.0,5.3,91,0.00,,,-99.99,VWS V12.07,2013-11-03 16:55:00,
2013-11-03 11:00:00,35.7,33.3,29.81,SSW,202,0.0,5.3,91,0.00,,,-99.99,VWS V12.07,2013-11-03 17:00:00,
2013-11-03 11:05:00,36.1,33.7,29.81,SSW,202,0.0,0.0,91,0.00,,,-99.99,VWS V12.07,2013-11-03 17:05:00,
2013-11-03 11:10:00,36.3,33.9,29.81,SSW,202,0.0,0.0,91,0.00,,,-99.99,VWS V12.07,2013-11-03 17:10:00,
2013-11-03 11:15:00,36.5,34.1,29.81,South,180,0.0,0.0,91,0.00,,,-99.99,VWS V12.07,2013-11-03 17:15:00,
2013-11-03 11:20:00,36.6,34.2,29.81,SSW,202,4.9,4.9,91,0.00,,,-99.99,VWS V12.07,2013-11-03 17:20:00,
2013-11-03 11:25:00,37.2,34.8,29.81,SSW,202,2.4,4.9,91,0.00,,,-99.99,VWS V12.07,2013-11-03 17:25:00,
2013-11-03 11:30:00,37.5,35.1,29.81,SSW,202,0.0,4.9,91,0.00,,,-99.99,VWS V12.07,2013-11-03 17:30:00,
2013-11-03 11:35:00,37.9,35.5,29.81,SSW,202,0.4,0.4,91,0.00,,,-99.99,VWS V12.07,2013-11-03 17:35:00,
2013-11-03 11:40:00,38.3,35.9,29.81,SSW,202,4.0,4.0,91,0.00,,,-99.99,VWS V12.07,2013-11-03 17:40:00,
2013-11-03 11:45:00,38.1,35.4,29.81,SSW,202,0.0,4.0,90,0.00,,,-99.99,VWS V12.07,2013-11-03 17:45:00,
2013-11-03 11:50:00,38.3,35.6,29.81,SSW,202,0.0,0.0,90,0.00,,,-99.99,VWS V12.07,2013-11-03 17:50:00,
2013-11-03 11:55:00,38.4,35.7,29.80,SSW,202,0.0,2.9,90,0.00,,,-99.99,VWS V12.07,2013-11-03 17:55:00,
2013-11-03 12:00:00,38.4,35.5,29.80,SSW,202,0.0,2.9,89,0.00,,,-99.99,VWS V12.07,2013-11-03 18:00:00,
2013-11-03 12:05:00,38.6,35.6,29.81,SSW,202,5.1,5.1,89,0.00,,,-99.99,VWS V12.07,2013-11-03 18:05:00,
2013-11-03 12:10:00,38.8,35.8,29.80,SSW,202,0.0,5.1,89,0.00,,,-99.99,VWS V12.07,2013-11-03 18:10:00,
2013-11-03 12:15:00,39.0,36.0,29.80,SSW,202,0.0,5.1,89,0.00,,,-99.99,VWS V12.07,2013-11-03 18:15:00,
2013-11-03 12:20:00,39.0,36.0,29.80,SSW,202,0.0,0.0,89,0.00,,,-99.99,VWS V12.07,2013-11-03 18:20:00,
2013-11-03 12:25:00,39.3,36.0,29.79,SSW,202,0.0,0.0,88,0.00,,,-99.99,VWS V12.07,2013-11-03 18:25:00,
2013-11-03 12:30:00,39.3,36.0,29.79,SSW,202,0.0,1.3,88,0.00,,,-99.99,VWS V12.07,2013-11-03 18:30:00,
2013-11-03 12:35:00,39.3,36.0,29.80,SSW,202,0.0,0.0,88,0.00,,,-99.99,VWS V12.07,2013-11-03 18:35:00,
2013-11-03 12:40:00,39.2,35.7,29.79,SSW,202,4.9,4.9,87,0.00,,,-99.99,VWS V12.07,2013-11-03 18:40:00,
2013-11-03 12:45:00,39.3,35.8,29.79,SSW,202,0.0,4.9,87,0.00,,,-99.99,VWS V12.07,2013-11-03 18:45:00,
2013-11-03 12:50:00,39.3,35.8,29.79,SSW,202,2.2,2.2,87,0.00,,,-99.99,VWS V12.07,2013-11-03 18:50:00,
2013-11-03 12:55:00,39.7,36.2,29.79,SSW,202,1.5,2.2,87,0.00,,,-99.99,VWS V12.07,2013-11-03 18:55:00,
2013-11-03 13:00:00,39.9,36.3,29.79,SSW,202,3.5,4.2,87,0.00,,,-99.99,VWS V12.07,2013-11-03 19:00:00,
2013-11-03 13:05:00,39.9,36.1,29.78,SSW,202,1.3,3.5,86,0.00,,,-99.99,VWS V12.07,2013-11-03 19:05:00,
2013-11-03 13:10:00,40.1,36.0,29.78,SSW,202,0.0,3.5,85,0.00,,,-99.99,VWS V12.07,2013-11-03 19:10:00,
2013-11-03 13:15:00,40.1,36.0,29.78,SSW,202,0.0,3.5,85,0.00,,,-99.99,VWS V12.07,2013-11-03 19:15:00,
2013-11-03 13:20:00,40.2,36.1,29.78,SSW,202,0.0,0.0,85,0.00,,,-99.99,VWS V12.07,2013-11-03 19:20:00,
2013-11-03 13:25:00,40.2,36.1,29.77,SSE,158,0.0,1.1,85,0.00,,,-99.99,VWS V12.07,2013-11-03 19:25:00,
2013-11-03 13:30:00,40.2,35.8,29.77,SSW,202,0.0,1.1,84,0.00,,,-99.99,VWS V12.07,2013-11-03 19:30:00,
2013-11-03 13:35:00,40.2,35.8,29.77,West,270,0.8,0.8,84,0.00,,,-99.99,VWS V12.07,2013-11-03 19:35:00,
2013-11-03 13:40:00,40.2,35.8,29.77,SSW,202,4.2,6.0,84,0.00,,,-99.99,VWS V12.07,2013-11-03 19:40:00,
2013-11-03 13:45:00,40.2,35.5,29.77,SSW,202,0.0,6.0,83,0.00,,,-99.99,VWS V12.07,2013-11-03 19:45:00,
2013-11-03 13:50:00,40.2,35.5,29.77,SSW,202,1.3,2.4,83,0.00,,,-99.99,VWS V12.07,2013-11-03 19:50:00,
2013-11-03 13:55:00,40.2,35.2,29.77,SSW,202,0.0,5.5,82,0.00,,,-99.99,VWS V12.07,2013-11-03 19:55:00,
2013-11-03 14:00:00,40.2,35.2,29.77,South,180,0.0,5.5,82,0.00,,,-99.99,VWS V12.07,2013-11-03 20:00:00,
2013-11-03 14:05:00,40.1,35.1,29.77,South,180,0.0,0.0,82,0.00,,,-99.99,VWS V12.07,2013-11-03 20:05:00,
2013-11-03 14:10:00,40.2,34.8,29.77,South,180,3.3,3.3,81,0.00,,,-99.99,VWS V12.07,2013-11-03 20:10:00,
2013-11-03 14:15:00,40.2,34.8,29.77,SSW,202,0.0,3.3,81,0.00,,,-99.99,VWS V12.07,2013-11-03 20:15:00,
2013-11-03 14:20:00,40.2,34.8,29.76,SW,225,0.0,0.0,81,0.00,,,-99.99,VWS V12.07,2013-11-03 20:20:00,
2013-11-03 14:25:00,40.8,35.4,29.76,SSW,202,0.0,1.3,81,0.00,,,-99.99,VWS V12.07,2013-11-03 20:25:00,
2013-11-03 14:30:00,40.8,35.4,29.76,SE,135,0.0,1.3,81,0.00,,,-99.99,VWS V12.07,2013-11-03 20:30:00,
2013-11-03 14:35:00,40.8,35.1,29.77,SSW,202,3.1,3.1,80,0.00,,,-99.99,VWS V12.07,2013-11-03 20:35:00,
2013-11-03 14:40:00,40.8,35.1,29.77,South,180,0.0,3.1,80,0.00,,,-99.99,VWS V12.07,2013-11-03 20:40:00,
2013-11-03 14:45:00,40.8,35.1,29.77,South,180,0.0,3.1,80,0.00,,,-99.99,VWS V12.07,2013-11-03 20:45:00,
2013-11-03 14:50:00,40.6,34.9,29.77,SSW,202,0.0,1.5,80,0.00,,,-99.99,VWS V12.07,2013-11-03 20:50:00,
2013-11-03 14:55:00,40.6,34.9,29.77,South,180,0.0,1.5,80,0.00,,,-99.99,VWS V12.07,2013-11-03 20:55:00,
2013-11-03 15:00:00,40.6,34.9,29.76,West,270,0.0,1.5,80,0.00,,,-99.99,VWS V12.07,2013-11-03 21:00:00,
2013-11-03 15:05:00,40.6,34.9,29.76,WSW,248,0.0,0.0,80,0.00,,,-99.99,VWS V12.07,2013-11-03 21:05:00,
2013-11-03 15:10:00,40.8,35.1,29.76,WSW,248,0.0,0.4,80,0.00,,,-99.99,VWS V12.07,2013-11-03 21:10:00,
2013-11-03 15:15:00,40.8,34.8,29.76,WSW,248,0.0,0.4,79,0.00,,,-99.99,VWS V12.07,2013-11-03 21:15:00,
2013-11-03 15:20:00,40.8,34.8,29.76,WSW,248,0.0,0.0,79,0.00,,,-99.99,VWS V12.07,2013-11-03 21:20:00,
2013-11-03 15:25:00,40.8,34.8,29.76,WSW,248,0.0,0.0,79,0.00,,,-99.99,VWS V12.07,2013-11-03 21:25:00,
2013-11-03 15:30:00,40.8,34.8,29.75,WSW,248,0.0,0.0,79,0.00,,,-99.99,VWS V12.07,2013-11-03 21:30:00,
2013-11-03 15:35:00,40.8,34.8,29.76,WSW,248,0.0,0.0,79,0.00,,,-99.99,VWS V12.07,2013-11-03 21:35:00,
2013-11-03 15:40:00,40.6,34.6,29.75,SW,225,0.0,0.0,79,0.00,,,-99.99,VWS V12.07,2013-11-03 21:40:00,
2013-11-03 15:45:00,40.6,34.6,29.75,SW,225,0.0,3.3,79,0.00,,,-99.99,VWS V12.07,2013-11-03 21:45:00,
2013-11-03 15:50:00,40.4,34.4,29.75,SW,225,0.0,0.0,79,0.00,,,-99.99,VWS V12.07,2013-11-03 21:50:00,
2013-11-03 15:55:00,40.1,34.1,29.75,SW,225,0.0,0.0,79,0.00,,,-99.99,VWS V12.07,2013-11-03 21:55:00,
2013-11-03 16:00:00,40.2,34.2,29.74,SW,225,0.0,0.0,79,0.00,,,-99.99,VWS V12.07,2013-11-03 22:00:00,
2013-11-03 16:05:00,40.1,34.1,29.74,SW,225,0.0,0.0,79,0.00,,,-99.99,VWS V12.07,2013-11-03 22:05:00,
2013-11-03 16:10:00,40.1,34.1,29.74,SW,225,0.0,0.0,79,0.00,,,-99.99,VWS V12.07,2013-11-03 22:10:00,
2013-11-03 16:15:00,39.9,33.9,29.74,SW,225,0.0,0.0,79,0.00,,,-99.99,VWS V12.07,2013-11-03 22:15:00,
2013-11-03 16:20:00,39.9,33.9,29.75,SW,225,0.0,0.0,79,0.00,,,-99.99,VWS V12.07,2013-11-03 22:20:00,
2013-11-03 16:25:00,39.5,33.5,29.75,SW,225,0.0,0.0,79,0.00,,,-99.99,VWS V12.07,2013-11-03 22:25:00,
2013-11-03 16:30:00,39.3,33.3,29.74,SW,225,0.0,0.0,79,0.00,,,-99.99,VWS V12.07,2013-11-03 22:30:00,
2013-11-03 16:35:00,39.3,33.3,29.73,SW,225,0.0,0.0,79,0.00,,,-99.99,VWS V12.07,2013-11-03 22:35:00,
2013-11-03 16:40:00,39.0,33.0,29.73,SW,225,0.0,0.0,79,0.00,,,-99.99,VWS V12.07,2013-11-03 22:40:00,
2013-11-03 16:45:00,38.8,32.9,29.73,SW,225,0.0,0.0,79,0.00,,,-99.99,VWS V12.07,2013-11-03 22:45:00,
2013-11-03 16:50:00,38.4,32.5,29.74,SW,225,0.0,0.0,79,0.00,,,-99.99,VWS V12.07,2013-11-03 22:50:00,
2013-11-03 16:55:00,38.3,32.7,29.74,SW,225,0.0,0.0,80,0.00,,,-99.99,VWS V12.07,2013-11-03 22:55:00,
2013-11-03 17:00:00,38.1,32.5,29.74,SW,225,0.0,0.0,80,0.00,,,-99.99,VWS V12.07,2013-11-03 23:00:00,
2013-11-03 17:05:00,38.1,32.5,29.74,SW,225,1.5,1.5,80,0.00,,,-99.99,VWS V12.07,2013-11-03 23:05:00,
2013-11-03 17:10:00,37.9,32.3,29.75,SW,225,0.0,1.5,80,0.00,,,-99.99,VWS V12.07,2013-11-03 23:10:00,
2013-11-03 17:15:00,37.7,32.1,29.75,SW,225,0.0,1.5,80,0.00,,,-99.99,VWS V12.07,2013-11-03 23:15:00,
2013-11-03 17:20:00,37.5,31.9,29.75,SW,225,0.0,0.0,80,0.00,,,-99.99,VWS V12.07,2013-11-03 23:20:00,
2013-11-03 17:25:00,37.4,31.8,29.75,SW,225,0.0,0.0,80,0.00,,,-99.99,VWS V12.07,2013-11-03 23:25:00,
2013-11-03 17:30:00,37.2,31.6,29.75,SW,225,0.0,0.0,80,0.00,,,-99.99,VWS V12.07,2013-11-03 23:30:00,
2013-11-03 17:35:00,37.2,31.6,29.74,SW,225,0.0,0.0,80,0.00,,,-99.99,VWS V12.07,2013-11-03 23:35:00,
2013-11-03 17:40:00,37.2,31.6,29.74,SW,225,0.0,0.0,80,0.00,,,-99.99,VWS V12.07,2013-11-03 23:40:00,
2013-11-03 17:45:00,37.2,31.6,29.74,SW,225,0.0,0.0,80,0.00,,,-99.99,VWS V12.07,2013-11-03 23:45:00,
2013-11-03 17:50:00,37.2,31.6,29.74,SW,225,0.0,1.1,80,0.00,,,-99.99,VWS V12.07,2013-11-03 23:50:00,
2013-11-03 17:55:00,37.2,31.9,29.74,NNE,22,0.0,1.1,81,0.00,,,-99.99,VWS V12.07,2013-11-03 23:55:00,
2013-11-03 18:00:00,37.2,31.9,29.73,SE,135,0.0,1.1,81,0.00,,,-99.99,VWS V12.07,2013-11-04 00:00:00,
2013-11-03 18:05:00,37.2,31.9,29.74,SE,135,0.0,0.0,81,0.00,,,-99.99,VWS V12.07,2013-11-04 00:05:00,
2013-11-03 18:10:00,37.2,31.9,29.74,NNE,22,0.0,0.0,81,0.00,,,-99.99,VWS V12.07,2013-11-04 00:10:00,
2013-11-03 18:15:00,37.2,31.9,29.74,NNE,22,0.0,0.0,81,0.00,,,-99.99,VWS V12.07,2013-11-04 00:15:00,
2013-11-03 18:20:00,37.2,31.9,29.74,NNE,22,1.5,1.5,81,0.00,,,-99.99,VWS V12.07,2013-11-04 00:20:00,
2013-11-03 18:25:00,37.2,31.9,29.74,South,180,0.0,2.6,81,0.00,,,-99.99,VWS V12.07,2013-11-04 00:25:00,
2013-11-03 18:30:00,37.2,31.9,29.74,South,180,3.1,3.1,81,0.00,,,-99.99,VWS V12.07,2013-11-04 00:30:00,
2013-11-03 18:35:00,37.2,31.9,29.74,ESE,112,0.0,0.0,81,0.00,,,-99.99,VWS V12.07,2013-11-04 00:35:00,
2013-11-03 18:40:00,37.2,31.9,29.74,SSW,202,0.0,0.0,81,0.00,,,-99.99,VWS V12.07,2013-11-04 00:40:00,
2013-11-03 18:45:00,37.2,31.9,29.74,SSW,202,0.0,0.0,81,0.00,,,-99.99,VWS V12.07,2013-11-04 00:45:00,
2013-11-03 18:50:00,37.2,31.9,29.74,South,180,0.0,2.0,81,0.00,,,-99.99,VWS V12.07,2013-11-04 00:50:00,
2013-11-03 18:55:00,37.4,32.1,29.74,SSE,158,0.0,2.0,81,0.00,,,-99.99,VWS V12.07,2013-11-04 00:55:00,
2013-11-03 19:00:00,37.4,32.1,29.74,SSE,158,0.0,2.0,81,0.00,,,-99.99,VWS V12.07,2013-11-04 01:00:00,
2013-11-03 19:05:00,37.4,32.1,29.75,SW,225,0.0,0.0,81,0.00,,,-99.99,VWS V12.07,2013-11-04 01:05:00,
2013-11-03 19:10:00,37.4,32.4,29.74,WSW,248,0.0,0.0,82,0.00,,,-99.99,VWS V12.07,2013-11-04 01:10:00,
2013-11-03 19:15:00,37.4,32.4,29.74,West,270,1.5,1.5,82,0.00,,,-99.99,VWS V12.07,2013-11-04 01:15:00,
2013-11-03 19:20:00,37.4,32.4,29.75,NNW,338,0.0,0.0,82,0.00,,,-99.99,VWS V12.07,2013-11-04 01:20:00,
2013-11-03 19:25:00,37.4,32.4,29.75,WNW,292,0.0,0.0,82,0.00,,,-99.99,VWS V12.07,2013-11-04 01:25:00,
2013-11-03 19:30:00,37.4,32.4,29.75,SW,225,0.0,0.0,82,0.00,,,-99.99,VWS V12.07,2013-11-04 01:30:00,
2013-11-03 19:35:00,37.4,32.4,29.75,South,180,0.0,0.0,82,0.00,,,-99.99,VWS V12.07,2013-11-04 01:35:00,
2013-11-03 19:40:00,37.4,32.7,29.74,SSW,202,0.0,0.0,83,0.00,,,-99.99,VWS V12.07,2013-11-04 01:40:00,
2013-11-03 19:45:00,37.4,32.7,29.74,SSE,158,0.0,0.0,83,0.00,,,-99.99,VWS V12.07,2013-11-04 01:45:00,
2013-11-03 19:50:00,37.4,32.7,29.74,South,180,0.0,0.0,83,0.00,,,-99.99,VWS V12.07,2013-11-04 01:50:00,
2013-11-03 19:55:00,37.4,32.7,29.74,SSE,158,0.0,0.0,83,0.00,,,-99.99,VWS V12.07,2013-11-04 01:55:00,
2013-11-03 20:00:00,37.2,32.5,29.74,South,180,0.0,0.0,83,0.00,,,-99.99,VWS V12.07,2013-11-04 02:00:00,
2013-11-03 20:05:00,37.2,32.5,29.74,NNE,22,0.0,0.0,83,0.00,,,-99.99,VWS V12.07,2013-11-04 02:05:00,
2013-11-03 20:10:00,37.4,32.7,29.74,SSE,158,0.0,0.0,83,0.00,,,-99.99,VWS V12.07,2013-11-04 02:10:00,
2013-11-03 20:15:00,37.4,33.0,29.74,SSE,158,0.0,0.0,84,0.00,,,-99.99,VWS V12.07,2013-11-04 02:15:00,
2013-11-03 20:20:00,37.4,33.0,29.73,SE,135,3.3,3.3,84,0.00,,,-99.99,VWS V12.07,2013-11-04 02:20:00,
2013-11-03 20:25:00,37.4,33.0,29.73,SSE,158,0.0,3.3,84,0.00,,,-99.99,VWS V12.07,2013-11-04 02:25:00,
2013-11-03 20:30:00,37.4,33.0,29.73,SSE,158,0.0,3.3,84,0.00,,,-99.99,VWS V12.07,2013-11-04 02:30:00,
2013-11-03 20:35:00,37.4,33.0,29.73,SSE,158,0.0,0.0,84,0.00,,,-99.99,VWS V12.07,2013-11-04 02:35:00,
2013-11-03 20:40:00,37.4,33.0,29.73,SSW,202,0.0,0.0,84,0.00,,,-99.99,VWS V12.07,2013-11-04 02:40:00,
2013-11-03 20:45:00,37.5,33.1,29.73,SSW,202,0.0,0.0,84,0.00,,,-99.99,VWS V12.07,2013-11-04 02:45:00,
2013-11-03 20:50:00,37.4,33.0,29.74,South,180,0.0,0.0,84,0.00,,,-99.99,VWS V12.07,2013-11-04 02:50:00,
2013-11-03 20:55:00,37.4,33.0,29.74,WNW,292,0.0,0.0,84,0.00,,,-99.99,VWS V12.07,2013-11-04 02:55:00,
2013-11-03 21:00:00,37.5,33.1,29.73,NE,45,0.0,0.0,84,0.00,,,-99.99,VWS V12.07,2013-11-04 03:00:00,
2013-11-03 21:05:00,37.5,33.1,29.73,SSW,202,0.0,0.0,84,0.00,,,-99.99,VWS V12.07,2013-11-04 03:05:00,
2013-11-03 21:10:00,37.5,33.1,29.73,North,0,0.0,0.0,84,0.00,,,-99.99,VWS V12.07,2013-11-04 03:10:00,
2013-11-03 21:15:00,37.5,33.1,29.73,North,0,0.0,0.0,84,0.00,,,-99.99,VWS V12.07,2013-11-04 03:15:00,
2013-11-03 21:20:00,37.4,33.0,29.73,South,180,0.0,0.0,84,0.00,,,-99.99,VWS V12.07,2013-11-04 03:20:00,
2013-11-03 21:25:00,37.4,33.0,29.73,NNE,22,0.0,0.0,84,0.00,,,-99.99,VWS V12.07,2013-11-04 03:25:00,
2013-11-03 21:30:00,37.4,33.0,29.72,South,180,0.0,0.0,84,0.00,,,-99.99,VWS V12.07,2013-11-04 03:30:00,
2013-11-03 21:35:00,37.2,32.8,29.72,SSW,202,0.0,0.0,84,0.00,,,-99.99,VWS V12.07,2013-11-04 03:35:00,
2013-11-03 21:40:00,37.2,32.8,29.73,SSW,202,0.0,0.0,84,0.00,,,-99.99,VWS V12.07,2013-11-04 03:40:00,
2013-11-03 21:45:00,37.2,32.8,29.73,SSW,202,2.4,2.4,84,0.00,,,-99.99,VWS V12.07,2013-11-04 03:45:00,
2013-11-03 21:50:00,37.2,32.8,29.73,SSW,202,0.0,0.0,84,0.00,,,-99.99,VWS V12.07,2013-11-04 03:50:00,
2013-11-03 21:55:00,37.2,32.8,29.73,SSW,202,0.0,0.0,84,0.00,,,-99.99,VWS V12.07,2013-11-04 03:55:00,
2013-11-03 22:00:00,37.0,32.6,29.73,SSW,202,0.0,0.0,84,0.00,,,-99.99,VWS V12.07,2013-11-04 04:00:00,
2013-11-03 22:05:00,37.0,32.6,29.73,SW,225,0.0,0.0,84,0.00,,,-99.99,VWS V12.07,2013-11-04 04:05:00,
2013-11-03 22:15:00,37.0,32.6,29.73,SW,225,0.0,0.0,84,0.00,,,-99.99,VWS V12.07,2013-11-04 04:15:00,
2013-11-03 22:20:00,37.2,32.8,29.73,WSW,248,0.0,0.0,84,0.00,,,-99.99,VWS V12.07,2013-11-04 04:20:00,
2013-11-03 22:25:00,37.2,32.8,29.73,SW,225,0.0,0.0,84,0.00,,,-99.99,VWS V12.07,2013-11-04 04:25:00,
2013-11-03 22:30:00,37.2,32.8,29.73,SSW,202,0.0,0.0,84,0.00,,,-99.99,VWS V12.07,2013-11-04 04:30:00,
2013-11-03 22:35:00,37.2,32.8,29.73,South,180,0.0,0.0,84,0.00,,,-99.99,VWS V12.07,2013-11-04 04:35:00,
2013-11-03 22:40:00,37.2,32.8,29.73,South,180,0.0,0.0,84,0.00,,,-99.99,VWS V12.07,2013-11-04 04:40:00,
2013-11-03 22:45:00,37.2,32.8,29.74,South,180,0.0,0.0,84,0.00,,,-99.99,VWS V12.07,2013-11-04 04:45:00,
2013-11-03 22:50:00,37.4,33.0,29.74,South,180,0.0,0.0,84,0.00,,,-99.99,VWS V12.07,2013-11-04 04:50:00,
2013-11-03 22:55:00,37.5,33.1,29.74,WSW,248,0.0,0.0,84,0.00,,,-99.99,VWS V12.07,2013-11-04 04:55:00,
2013-11-03 23:00:00,37.5,33.1,29.74,SW,225,0.0,0.0,84,0.00,,,-99.99,VWS V12.07,2013-11-04 05:00:00,
2013-11-03 23:05:00,37.5,33.1,29.74,SW,225,0.0,0.0,84,0.00,,,-99.99,VWS V12.07,2013-11-04 05:05:00,
2013-11-03 23:10:00,37.5,33.1,29.74,SSW,202,0.0,0.0,84,0.00,,,-99.99,VWS V12.07,2013-11-04 05:10:00,
2013-11-03 23:15:00,37.5,33.1,29.74,SSW,202,0.0,0.0,84,0.00,,,-99.99,VWS V12.07,2013-11-04 05:15:00,
2013-11-03 23:20:00,37.5,33.1,29.74,SE,135,0.0,0.0,84,0.00,,,-99.99,VWS V12.07,2013-11-04 05:20:00,
2013-11-03 23:25:00,37.7,33.3,29.73,South,180,0.0,0.0,84,0.00,,,-99.99,VWS V12.07,2013-11-04 05:25:00,
2013-11-03 23:30:00,37.7,33.3,29.73,South,180,0.0,0.0,84,0.00,,,-99.99,VWS V12.07,2013-11-04 05:30:00,
2013-11-03 23:35:00,37.7,33.3,29.73,SSW,202,0.0,0.0,84,0.00,,,-99.99,VWS V12.07,2013-11-04 05:35:00,
2013-11-03 23:40:00,37.7,33.3,29.74,South,180,0.0,0.0,84,0.00,,,-99.99,VWS V12.07,2013-11-04 05:40:00,
2013-11-03 23:45:00,37.9,33.5,29.74,South,180,0.8,0.8,84,0.00,,,-99.99,VWS V12.07,2013-11-04 05:45:00,
2013-11-03 23:50:00,37.9,33.5,29.73,South,180,0.0,0.0,84,0.00,,,-99.99,VWS V12.07,2013-11-04 05:50:00,
2013-11-03 23:55:00,37.9,33.5,29.73,South,180,0.0,0.0,84,0.00,,,-99.99,VWS V12.07,2013-11-04 05:55:00,